Terug naar catalogus

TITAN 34B R/B

ActiefHEO
NORAD 15227·ROCKET BODY·🇺🇸 United States

Gelanceerd Aug 28, 1984 vanaf Vandenberg Space Force Base

Loading…

Volgende Passages (komende 24 uur)

TLE

VersSource: Space-Track

Epoch: Sep 13, 2026, 23:25 UTC

1 15227U 84091B   26256.97602948 -.00000618  00000-0  51308-2 0  9990
2 15227  63.1390 235.7326 7163729 271.3385  15.1203  2.07970119 56383

Volg TITAN 34B R/B in realtime met AllMySat

Download on the App Store